[[{"header":{"parameterUnit":"m.s-1","parameterCategory":1,"la1":30.2991,"la2":30.254,"lo1":-89.0895,"lo2":-89.0444,"dy":0.0017,"dx":0.0017,"nx":28,"ny":28,"refTime":"2024-06-04T21:00:00:Z","depth":0,"parameterNumber":2,"parameterNumberName":"U-component_of_WINDS"},"data":[0,0,0,0,0,0,0,0,0,0,0,0,0,0,0,0,0,0,0,0,0,0,0,0,0,0,0,0,0,0,0,0,0,0,0,0,0,0,0,0,0,0,0,0,0,0,0,0,0,0,0,0,0,0,0,0,0,0,-0.6911,-0.6912,0,-0.6987,-0.6987,-0.6988,-0.7036,-0.7036,-0.7036,-0.7036,-0.7113,-0.7114,-0.7116,0,0,0,0,0,0,0,0,0,0,0,0,0,-0.6809,-0.681,-0.6911,-0.6912,-0.6913,-0.6986,-0.6988,-0.6989,-0.7036,-0.7036,-0.7036,-0.7036,-0.7112,-0.7114,-0.7116,0,0,0,0,0,0,0,0,0,0,0,0,0,-0.6865,-0.6811,-0.6911,-0.6946,-0.6949,-0.6986,-0.6988,-0.6989,-0.7035,-0.7036,-0.7036,-0.7037,-0.7111,-0.7114,-0.7116,-0.7125,0,0,-0.7125,-0.7126,0,0,0,0,0,0,0,0,-0.6862,-0.6869,-0.694,-0.6943,-0.6948,-0.7002,-0.6979,-0.7034,-0.7035,-0.7003,-0.7036,-0.7037,-0.7075,-0.7081,-0.7094,-0.7128,-0.7132,-0.7125,-0.7126,-0.7128,-0.7128,0,0,0,0,0,0,0,-0.6858,-0.6866,-0.6941,-0.6941,-0.6945,-0.6957,-0.6966,-0.699,-0.7036,-0.7006,-0.7009,-0.7018,-0.7078,-0.7092,-0.7096,-0.7133,-0.7125,-0.7127,-0.7129,-0.713,-0.7179,-0.7179,0,0,0,0,0,0,-0.6849,-0.6863,-0.6939,-0.6943,-0.6905,-0.6959,-0.6968,-0.6984,-0.7036,-0.7044,-0.7017,-0.7019,-0.7087,-0.7093,-0.7099,-0.7113,-0.7128,-0.713,-0.7132,-0.7179,-0.7179,-0.7178,0,0,0,0,0,0,-0.6847,-0.6855,-0.6936,-0.6904,-0.6915,-0.696,-0.6978,-0.6985,-0.6999,-0.7044,-0.7053,-0.7023,-0.7087,-0.7095,-0.7118,-0.7116,-0.7131,-0.7134,-0.7179,-0.7179,-0.7179,-0.714,0,0,0,0,0,0,-0.6843,-0.6854,-0.6858,-0.6904,-0.6917,-0.6953,-0.6977,-0.6987,-0.7004,-0.7008,-0.7052,-0.706,-0.7088,-0.7114,-0.7121,-0.712,-0.7136,-0.718,-0.7179,-0.7179,-0.7142,-0.7139,-0.7136,0,0,0,0,0,-0.684,-0.6843,-0.6858,-0.6866,-0.6922,-0.6953,-0.6961,-0.6994,-0.7004,-0.7008,-0.7037,-0.7058,-0.7116,-0.7116,-0.7124,-0.7124,-0.718,-0.7179,-0.7179,-0.7143,-0.7139,-0.7136,0,0,0,0,0,0,-0.6795,-0.685,-0.6866,-0.6885,-0.6914,-0.6961,-0.6967,-0.6988,-0.7015,-0.7017,-0.7057,-0.7066,-0.7086,-0.7107,-0.7107,-0.7136,-0.715,-0.7151,-0.7121,-0.7117,-0.7114,-0.7109,-0.7138,0,0,0,0,0,-0.6788,-0.6809,-0.6855,-0.6868,-0.6881,-0.6922,-0.6936,-0.696,-0.6991,-0.7004,-0.7034,-0.7064,-0.7089,-0.7104,-0.713,-0.7146,-0.7156,-0.715,-0.7147,-0.7144,-0.7144,-0.7155,-0.7153,-0.7176,-0.7176,-0.7176,0,0,-0.6773,-0.6805,-0.6816,-0.686,-0.6885,-0.6906,-0.6932,-0.6952,-0.6968,-0.7007,-0.703,-0.7054,-0.709,-0.711,-0.712,-0.7128,-0.714,-0.7143,-0.714,-0.7142,-0.7154,-0.7152,-0.715,-0.7176,-0.7176,-0.7176,0,0,-0.6755,-0.6782,-0.6795,-0.682,-0.6858,-0.6885,-0.6888,-0.6933,-0.695,-0.6974,-0.7004,-0.7023,-0.7065,-0.709,-0.7108,-0.7101,-0.7122,-0.7108,-0.7092,-0.7102,-0.71,-0.7099,-0.7097,-0.7096,-0.7108,-0.7108,-0.7108,0,-0.6731,-0.6764,-0.6799,-0.6819,-0.6838,-0.6874,-0.6888,-0.6911,-0.6955,-0.6967,-0.6976,-0.703,-0.7056,-0.7083,-0.7081,-0.7094,-0.71,-0.7103,-0.7098,-0.7097,-0.7096,-0.7094,-0.7094,-0.7106,-0.7106,-0.7107,-0.7107,0,-0.6733,-0.6755,-0.6761,-0.6804,-0.6823,-0.684,-0.6878,-0.6894,-0.6915,-0.6941,-0.6966,-0.7,-0.7033,-0.7041,-0.7062,-0.7071,-0.7075,-0.709,-0.7106,-0.7091,-0.709,-0.709,-0.7103,-0.7104,-0.7105,-0.7105,0,0,-0.6689,-0.6752,-0.6754,-0.6774,-0.6819,-0.6837,-0.6855,-0.6888,-0.6901,-0.693,-0.6947,-0.6982,-0.6997,-0.7017,-0.7041,-0.705,-0.7044,-0.7065,-0.7067,-0.706,-0.7056,-0.7044,-0.7043,-0.7058,-0.7058,-0.7058,-0.7053,0,-0.6679,-0.6714,-0.6747,-0.6771,-0.6792,-0.6827,-0.6843,-0.6873,-0.6898,-0.692,-0.6948,-0.6972,-0.699,-0.7002,-0.7013,-0.7042,-0.7043,-0.7043,-0.7074,-0.7075,-0.7064,-0.7043,-0.703,-0.7024,-0.7053,-0.7053,-0.7053,0,-0.6671,-0.67,-0.6725,-0.6769,-0.6779,-0.6793,-0.6827,-0.6847,-0.6882,-0.6899,-0.6922,-0.6948,-0.697,-0.6983,-0.7014,-0.7013,-0.7028,-0.7045,-0.7045,-0.7049,-0.7063,-0.7047,-0.7023,-0.7022,-0.7053,-0.7053,-0.7053,0,-0.6638,-0.6682,-0.6704,-0.672,-0.6771,-0.678,-0.6802,-0.6837,-0.6855,-0.6884,-0.6896,-0.6927,-0.6944,-0.6968,-0.7002,-0.7008,-0.7029,-0.7045,-0.7045,-0.7044,-0.7047,-0.7047,-0.7026,-0.7056,-0.7056,-0.7056,-0.7056,0,-0.6623,-0.6637,-0.6689,-0.6702,-0.672,-0.6758,-0.6774,-0.6799,-0.683,-0.6849,-0.6881,-0.6898,-0.6941,-0.6964,-0.699,-0.7012,-0.7019,-0.7035,-0.7041,-0.7032,-0.703,-0.7042,-0.7043,-0.7056,-0.7056,-0.7056,-0.7056,0,-0.6588,-0.6623,-0.6649,-0.6696,-0.6708,-0.6719,-0.6759,-0.6773,-0.6801,-0.6824,-0.6832,-0.6875,-0.6903,-0.6939,-0.6978,-0.6996,-0.7015,-0.7025,-0.7003,-0.7007,-0.7005,-0.7005,-0.6991,-0.6992,-0.7021,-0.7021,-0.7021,0,-0.6576,-0.6588,-0.6636,-0.6651,-0.6672,-0.6696,-0.6715,-0.6753,-0.6771,-0.6812,-0.6821,-0.6852,-0.6879,-0.6922,-0.6957,-0.6987,-0.6999,-0.6992,-0.7003,-0.6994,-0.6999,-0.6998,-0.7,-0.6989,-0.6988,-0.6988,-0.6988,0,-0.6551,-0.6569,-0.6594,-0.6626,-0.6648,-0.6675,-0.6703,-0.6714,-0.6758,-0.6777,-0.6806,-0.6827,-0.6867,-0.6897,-0.6933,-0.6956,-0.6979,-0.6984,-0.6985,-0.6976,-0.6963,-0.697,-0.6995,-0.6984,-0.6984,-0.6984,-0.6985,-0.6985,-0.6528,-0.6541,-0.6577,-0.6605,-0.663,-0.6656,-0.6672,-0.6702,-0.6727,-0.6763,-0.6784,-0.6813,-0.6848,-0.6898,-0.692,-0.6943,-0.6952,-0.6954,-0.6955,-0.6955,-0.6952,-0.6959,-0.695,-0.695,-0.695,-0.695,-0.695,0,-0.6506,-0.6531,-0.6556,-0.6595,-0.6617,-0.6637,-0.667,-0.6687,-0.6712,-0.6743,-0.6769,-0.6803,-0.6833,-0.687,-0.6903,-0.6914,-0.6926,-0.6921,-0.6921,-0.6926,-0.6942,-0.6938,-0.6911,-0.6911,-0.6911,-0.6911,-0.6911,-0.6911,-0.6497,-0.6519,-0.6541,-0.6576,-0.6602,-0.663,-0.6647,-0.6672,-0.6697,-0.6734,-0.6759,-0.6783,-0.6817,-0.6852,-0.688,-0.6891,-0.6901,-0.6894,-0.6907,-0.6921,-0.6925,-0.6928,-0.6924,-0.6896,-0.6895,-0.6889,-0.6889,-0.6889]},{"header":{"parameterUnit":"m.s-1","parameterCategory":1,"la1":30.2991,"la2":30.254,"lo1":-89.0895,"lo2":-89.0444,"dy":0.0017,"dx":0.0017,"nx":28,"ny":28,"refTime":"2024-06-04T21:00:00:Z","depth":0,"parameterNumber":3,"parameterNumberName":"V-component_of_WINDS"},"data":[0,0,0,0,0,0,0,0,0,0,0,0,0,0,0,0,0,0,0,0,0,0,0,0,0,0,0,0,0,0,0,0,0,0,0,0,0,0,0,0,0,0,0,0,0,0,0,0,0,0,0,0,0,0,0,0,0,0,6.3739,6.374,0,6.3901,6.3903,6.3905,6.3901,6.3899,6.3897,6.3895,6.4054,6.406,6.4067,0,0,0,0,0,0,0,0,0,0,0,0,0,6.3417,6.3423,6.3738,6.374,6.3743,6.3901,6.3903,6.3905,6.3902,6.3899,6.3896,6.3894,6.4052,6.406,6.4067,0,0,0,0,0,0,0,0,0,0,0,0,0,6.3565,6.3424,6.3738,6.376,6.3763,6.3901,6.3903,6.3906,6.3902,6.3899,6.3896,6.3892,6.405,6.4059,6.4068,6.4192,0,0,6.4097,6.4101,0,0,0,0,0,0,0,0,6.3557,6.3577,6.3755,6.3759,6.3763,6.3878,6.3848,6.4002,6.3903,6.3849,6.3895,6.3891,6.3998,6.4011,6.4049,6.42,6.4207,6.4098,6.4104,6.4108,6.411,0,0,0,0,0,0,0,6.3547,6.357,6.3803,6.3757,6.3762,6.3759,6.3776,6.3877,6.394,6.3854,6.3854,6.3873,6.3999,6.404,6.4052,6.4209,6.4098,6.4106,6.4112,6.4115,6.4468,6.4471,0,0,0,0,0,0,6.3533,6.3562,6.3797,6.3807,6.365,6.3767,6.3787,6.3844,6.3939,6.395,6.3876,6.3873,6.4025,6.4041,6.4058,6.4209,6.4108,6.4116,6.4122,6.4464,6.4469,6.4473,0,0,0,0,0,0,6.3526,6.3554,6.3791,6.3685,6.3715,6.3777,6.384,6.3849,6.3889,6.3956,6.3966,6.3907,6.4023,6.4045,6.4159,6.4214,6.4121,6.4129,6.446,6.4466,6.4471,6.4511,0,0,0,0,0,0,6.3517,6.3551,6.3601,6.3686,6.372,6.3892,6.3844,6.3855,6.3907,6.3904,6.3987,6.3997,6.4022,6.4145,6.4168,6.4225,6.4137,6.4455,6.4462,6.4469,6.4505,6.4518,6.4528,0,0,0,0,0,6.3505,6.3605,6.3604,6.3632,6.3784,6.3895,6.3914,6.3943,6.3911,6.396,6.4003,6.3995,6.4204,6.4157,6.4183,6.4244,6.4452,6.446,6.4468,6.45,6.4515,6.4528,0,0,0,0,0,0,6.3523,6.3616,6.3616,6.3747,6.3813,6.3894,6.3957,6.3958,6.4033,6.4027,6.4057,6.4076,6.419,6.4228,6.4173,6.4368,6.4324,6.4338,6.4339,6.4354,6.4365,6.4353,6.4144,0,0,0,0,0,6.3542,6.3627,6.3703,6.381,6.3844,6.3895,6.3944,6.3961,6.403,6.4057,6.4108,6.4173,6.4253,6.4306,6.4383,6.4511,6.4528,6.4565,6.4577,6.4586,6.4597,6.4666,6.4683,6.45,6.45,6.45,0,0,6.3582,6.3644,6.3695,6.3816,6.3869,6.3953,6.3919,6.401,6.4072,6.407,6.4182,6.4221,6.4295,6.4417,6.4473,6.4452,6.4651,6.4596,6.4603,6.461,6.4676,6.4693,6.4709,6.4506,6.4505,6.4504,0,0,6.3699,6.3755,6.385,6.3905,6.3987,6.402,6.4043,6.4124,6.4151,6.4264,6.4264,6.4336,6.4475,6.4528,6.4573,6.4708,6.4703,6.4733,6.4792,6.4858,6.4873,6.4886,6.4933,6.495,6.4744,6.4744,6.4744,0,6.3738,6.3868,6.3898,6.3991,6.4043,6.4047,6.4142,6.4193,6.4295,6.433,6.4306,6.4479,6.453,6.4663,6.4696,6.4733,6.4758,6.4723,6.4869,6.4882,6.4894,6.494,6.4957,6.4747,6.4747,6.4746,6.4746,0,6.3911,6.4001,6.4068,6.4169,6.4228,6.4321,6.4364,6.442,6.443,6.4465,6.4579,6.464,6.4729,6.4762,6.4773,6.4896,6.4881,6.4863,6.4819,6.4914,6.4957,6.4975,6.4751,6.475,6.4749,6.4749,0,0,6.4044,6.4161,6.4184,6.423,6.432,6.4389,6.4481,6.4571,6.4618,6.4687,6.4764,6.4881,6.4864,6.4915,6.4932,6.499,6.5092,6.4965,6.4967,6.4985,6.523,6.5243,6.5263,6.509,6.5093,6.5096,6.5224,0,6.4169,6.4336,6.4366,6.451,6.4592,6.4597,6.4677,6.4739,6.4774,6.4846,6.4883,6.4965,6.4938,6.4969,6.5027,6.5068,6.5142,6.5059,6.5159,6.5162,6.514,6.5286,6.53,6.5418,6.5241,6.5244,6.5246,0,6.4338,6.4415,6.4568,6.4647,6.4682,6.4754,6.4838,6.4908,6.4978,6.4999,6.5056,6.5065,6.5158,6.511,6.5238,6.5181,6.5223,6.5249,6.5254,6.5264,6.521,6.5299,6.5456,6.5474,6.5273,6.5271,6.5269,0,6.4419,6.4559,6.4669,6.4708,6.4803,6.4853,6.4894,6.4961,6.5013,6.5085,6.5118,6.52,6.5244,6.5306,6.5336,6.5299,6.5461,6.5416,6.5479,6.5478,6.5512,6.551,6.5678,6.5541,6.554,6.554,6.554,0,6.4556,6.4649,6.4707,6.4774,6.4878,6.491,6.5011,6.505,6.511,6.5183,6.5191,6.5259,6.5295,6.5367,6.5391,6.5492,6.5512,6.553,6.5535,6.5529,6.5527,6.5557,6.5549,6.5545,6.5544,6.5543,6.5542,0,6.4663,6.4706,6.4826,6.4906,6.4928,6.5,6.5068,6.5132,6.5166,6.5258,6.5281,6.5334,6.542,6.5456,6.5561,6.5576,6.5692,6.5691,6.5669,6.5671,6.5731,6.5725,6.5925,6.5952,6.5797,6.5798,6.5799,0,6.4748,6.482,6.4908,6.4959,6.5002,6.5083,6.5137,6.517,6.5225,6.5309,6.5363,6.5449,6.552,6.5656,6.5702,6.5781,6.5782,6.5846,6.5794,6.5785,6.5782,6.5777,6.5784,6.5856,6.5857,6.5859,6.586,0,6.4893,6.491,6.4988,6.5073,6.5137,6.5205,6.5271,6.5312,6.5355,6.5415,6.5504,6.5559,6.5667,6.5751,6.5834,6.5873,6.5873,6.5876,6.5894,6.5889,6.5873,6.5882,6.5695,6.5871,6.587,6.5869,6.5868,6.5868,6.4991,6.5055,6.5127,6.5213,6.5267,6.5328,6.5392,6.5435,6.551,6.5602,6.5616,6.5711,6.5777,6.5888,6.593,6.6003,6.5986,6.6013,6.602,6.6026,6.603,6.5862,6.6018,6.6017,6.6017,6.6017,6.6017,0,6.5136,6.5183,6.5261,6.5355,6.5422,6.5418,6.5491,6.5546,6.563,6.5693,6.5763,6.5864,6.5946,6.5998,6.608,6.6128,6.613,6.6148,6.6145,6.6153,6.604,6.6016,6.6145,6.6145,6.6145,6.6145,6.6145,6.6145,6.5219,6.5327,6.5353,6.5486,6.5531,6.5626,6.5668,6.5723,6.5774,6.5887,6.5956,6.599,6.6048,6.6134,6.6209,6.6221,6.6251,6.627,6.6282,6.6175,6.6161,6.6149,6.6126,6.6277,6.6277,6.6389,6.639,6.6391]}]]